User: anonymous   Login
Location: Caltech
(34.1382°N, 118.1253°W)
Time: 21:38:51
(UTC-07:00)
Language:

AO-27 - Orbit

View from above orbital plane
View from above orbital plane
View from above satellite
View from above satellite

Ground track
Ground track

The orbit data is extracted from the following two-line orbital elements,

1 22825U 93061C   15214.10949370  .00000053  00000-0  38123-4 0  9993
2 22825 098.7117 164.2395 0008537 166.6676 257.8578 14.29894896139505
Epoch (UTC): 02 August 2015 02:37:40
Eccentricity: 0.0008537
inclination: 98.7117°
perigee height: 786 km
apogee height: 798 km
right ascension of ascending node: 164.2395°
argument of perigee: 166.6676°
revolutions per day: 14.29894896
mean anomaly at epoch: 257.8578°
orbit number at epoch: 13950

The dashed part of the orbit path shows where the satellite is in the earth's shadow,  

DLR